Find Starlink 38143

NORAD ID: 100317 Int'l Des: 2026-184 Owner: SPXS Country: US Constellation: starlink operational

現在のビュー

3D地球を読み込み中...

About Starlink 38143

Starlink 38143 (NORAD 100317) is a starlink constellation satellite launched Aug 12, 2026 by SPXS of US. with a mass of 575.00 kg.

次回通過

Passes for default location (London). Set your location on the main map for personalized predictions.

高度履歴

Loading altitude history...

軌道要素

1 A0317U 26184S 26255.94484668 .00014976 00000-0 41581-3 0 9990
2 A0317 97.2833 121.1874 0001693 82.8671 277.2766 15.36989234 6205
Epoch: Sep 12, 2026 • Age: 6 hours

現在のステータス

高度 457.6 km
遠地点 / 近地点 N/A
速度 7.64 km/s
衛星直下点 2.17°N, 54.93°E
打ち上げ日 Aug 12, 2026
運用期間 32 days
タイプ internet

技術仕様

分類 Payload
質量 575.00 kg
乾燥質量 530.00 kg
総質量 575.00 kg
長さ 0.30 m
直径 4.10 m
スパン 29.00 m
形状 Box + pan
製造者 SPXS
バスタイプ Starlink V2MO
フェーズステータス In Orbit
所有者/国 SPXS/US

Most Searched